Volver al catálogo

STARLINK-32610

ActivoComunicacionesVLEO
NORAD 61971·PAYLOAD·🇺🇸 United States

Lanzado Nov 14, 2024 desde Cape Canaveral Space Force Station

Loading…

Próximos Pases (próximas 24 horas)

TLE

ActualizadoSource: CelesTrak SupGP

Época: Sep 14, 2026, 21:12 UTC

1 61971C 24210N   26257.88381944  .00007201  00000+0  26053-3 0  2575
2 61971  43.0002 191.5799 0001601 262.9559  42.1387 15.27612620    10

Sigue STARLINK-32610 en tiempo real con AllMySat

Download on the App Store